Content
SEND FEEDBACK

Daily
Averages
Monthly
Summary
United States of America

MERIZO, GUAM


Home > North America > United States > Guam
Elevation: 3 meters     Latitude: 13 14N     Longitude: 144 39E

WEATHER
 
SELECT A DAY
Number of Records: 350,245;   Date Range: 1/1/95 - 9/30/14
 
SHARE

PRINT THIS DATA

[ ← Previous Day ]
WEATHER ALMANAC - 28 FEBRUARY, 2013
[ Next Day → ]
[ °F ]   °C
Weather ElementAverageHighLow
Temperature26 °C29 °C (12:03 pm)23.8 °C (5:55 am)
Dewpoint23.6 °C25 °C (12:57 pm)22 °C (5:52 am)
Humidity87.1 %100 % (3:12 am)70 % (12:22 pm)
Barometer1009.8 hPa1011.2 hPa (9:20 pm)1008.1 hPa (3:55 pm)
Wind Speed24.5 km/h31.5 km/h (1:47 am)
Wind Gust48.1 km/h (1:47 am)
Weather ElementAverage
Visibility15.4 km
Wind DirectionE (92.5 °)

Weather ElementTotal
Precipitation---
Cooling Degree Days8.1 (Base 18.3)
Growing Degree Days16.4 (Base 10)
Averaged from 168 records on 28 February, 2013
WEATHER CONDITIONS BREAKOUT
WIND DIRECTION BREAKOUT
WEATHER BY HOUR - 28 FEBRUARY, 2013
[ °F ]   °C
Local TimeTemperatureDewpointHumidityBarometerVisibilityWind DirectionWind SpeedGust SpeedPrecipitationEventsConditions
12:21 AM25 °C23 °C89 %1010.2 hPa16.1 kmEast (80°)25.9 km/hMostly Cloudy
12:34 AM25 °C23 °C89 %1010.2 hPa16.1 kmEast (80°)20.4 km/hOvercast
12:55 AM24.8 °C23.7 °C94 %1010.2 hPa16.1 kmEast (80°)22.2 km/hMostly Cloudy
1:10 AM25 °C24 °C94 %1009.8 hPa16.1 kmEast (90°)18.5 km/hMostly Cloudy
1:47 AM25 °C23 °C89 %1009.5 hPa12.9 kmEast (100°)31.5 km/h48.1 km/hRainLight Rain
1:48 AM25 °C23 °C89 %1009.5 hPa11.3 kmEast (100°)29.6 km/h48.1 km/hRainLight Rain
1:53 AM24 °C23 °C94 %1009.5 hPa9.7 kmEast (90°)27.8 km/h48.1 km/hRainLight Rain
1:55 AM24.2 °C23.2 °C94 %1009.5 hPa8 kmEast (100°)24.1 km/h0 mmRainLight Rain
1:57 AM24 °C23 °C94 %1009.5 hPa6.4 kmEast (100°)31.5 km/hRainLight Rain
1:59 AM24 °C23 °C94 %1009.5 hPa6.4 kmEast (90°)27.8 km/hRainLight Rain
2:03 AM24 °C23 °C94 %1009.5 hPa4.8 kmEast (90°)22.2 km/hRainLight Rain
2:05 AM24 °C23 °C94 %1009.5 hPa6.4 kmEast (90°)18.5 km/hRainLight Rain
2:10 AM24 °C23 °C94 %1009.5 hPa12.9 kmEast (80°)18.5 km/hOvercast
2:28 AM24 °C23 °C94 %1009.1 hPa16.1 kmEast (90°)20.4 km/hOvercast
2:30 AM24 °C23 °C94 %1009.1 hPa16.1 kmEast (90°)18.5 km/hOvercast
2:44 AM24 °C23 °C94 %1009.1 hPa16.1 kmEast (90°)20.4 km/hMostly Cloudy
2:46 AM24 °C23 °C94 %1009.1 hPa16.1 kmEast (90°)22.2 km/hMostly Cloudy
2:47 AM25 °C24 °C94 %1009.1 hPa16.1 kmEast (90°)22.2 km/hMostly Cloudy
2:48 AM25 °C24 °C94 %1009.1 hPa16.1 kmEast (90°)24.1 km/hOvercast
2:55 AM24.6 °C23.6 °C94 %1008.8 hPa16.1 kmEast (90°)20.4 km/h0 mmOvercast
3:00 AM25 °C24 °C94 %1008.8 hPa16.1 kmEast (90°)27.8 km/h35.2 km/hOvercast
3:09 AM25 °C24 °C94 %1008.8 hPa16.1 kmEast (80°)31.5 km/hLight Drizzle
3:12 AM24 °C24 °C100 %1008.8 hPa16.1 kmEast (90°)29.6 km/h40.7 km/hLight Drizzle
3:14 AM24 °C24 °C100 %1008.8 hPa16.1 kmEast (90°)27.8 km/h40.7 km/hLight Drizzle
3:18 AM24 °C23 °C94 %1009.1 hPa16.1 kmEast (90°)27.8 km/h40.7 km/hOvercast
3:24 AM24 °C23 °C94 %1008.8 hPa16.1 kmEast (90°)25.9 km/hOvercast
3:26 AM24 °C23 °C94 %1008.8 hPa16.1 kmEast (100°)25.9 km/hOvercast
3:34 AM25 °C23 °C89 %1008.8 hPa16.1 kmESE (110°)29.6 km/h37 km/hOvercast
3:43 AM25 °C24 °C94 %1008.8 hPa16.1 kmEast (100°)24.1 km/hOvercast
3:55 AM24.7 °C23.7 °C94 %1008.8 hPa16.1 kmEast (100°)24.1 km/h0 mmOvercast
4:00 AM25 °C24 °C94 %1008.8 hPa16.1 kmEast (100°)20.4 km/hOvercast
4:02 AM25 °C24 °C94 %1008.8 hPa16.1 kmESE (110°)24.1 km/hOvercast
4:21 AM25 °C23 °C89 %1008.8 hPa16.1 kmESE (110°)22.2 km/hOvercast
4:23 AM25 °C23 °C89 %1008.8 hPa16.1 kmEast (100°)22.2 km/h33.3 km/hOvercast
4:48 AM25 °C23 °C89 %1008.5 hPa16.1 kmEast (100°)20.4 km/hMostly Cloudy
4:54 AM24 °C23 °C94 %1008.5 hPa16.1 kmEast (100°)20.4 km/hMostly Cloudy
4:55 AM24.5 °C22.9 °C91 %1008.5 hPa16.1 kmEast (100°)20.4 km/hMostly Cloudy
5:26 AM25 °C23 °C89 %1008.5 hPa16.1 kmEast (90°)20.4 km/hMostly Cloudy
5:29 AM25 °C23 °C89 %1008.8 hPa16.1 kmEast (90°)18.5 km/hMostly Cloudy
5:37 AM25 °C24 °C94 %1008.8 hPa16.1 kmEast (90°)18.5 km/hMostly Cloudy
5:44 AM25 °C24 °C94 %1008.8 hPa16.1 kmESE (120°)16.7 km/hMostly Cloudy
5:45 AM25 °C24 °C94 %1008.8 hPa16.1 kmSE (130°)20.4 km/hMostly Cloudy
5:46 AM25 °C23 °C89 %1008.8 hPa16.1 kmSE (140°)24.1 km/hMostly Cloudy
5:49 AM24 °C23 °C94 %1008.8 hPa16.1 kmSE (130°)22.2 km/hMostly Cloudy
5:50 AM24 °C23 °C94 %1008.8 hPa16.1 kmESE (120°)22.2 km/hOvercast
5:52 AM24 °C22 °C89 %1008.8 hPa16.1 kmESE (120°)18.5 km/h29.6 km/hOvercast
5:55 AM23.8 °C22.4 °C92 %1008.8 hPa14.5 kmSE (140°)18.5 km/h31.5 km/hOvercast
5:57 AM24 °C22 °C89 %1008.8 hPa14.5 kmSE (130°)24.1 km/h31.5 km/hRainLight Rain
5:59 AM24 °C22 °C89 %1008.8 hPa12.9 kmSE (130°)24.1 km/h31.5 km/hRainLight Rain
6:09 AM24 °C23 °C94 %1008.8 hPa14.5 kmSSE (150°)14.8 km/hOvercast
6:12 AM24 °C23 °C94 %1009.1 hPa11.3 kmEast (100°)14.8 km/hRainLight Rain
6:15 AM24 °C24 °C100 %1009.1 hPa11.3 kmEast (100°)11.1 km/hLight Drizzle
6:22 AM24 °C24 °C100 %1009.1 hPa12.9 kmEast (80°)27.8 km/hOvercast
6:27 AM25 °C23 °C89 %1009.1 hPa16.1 kmEast (90°)31.5 km/hOvercast
6:38 AM25 °C23 °C89 %1009.1 hPa16.1 kmEast (90°)27.8 km/hMostly Cloudy
6:41 AM25 °C23 °C89 %1009.1 hPa16.1 kmEast (90°)25.9 km/hMostly Cloudy
6:55 AM25.4 °C23.5 °C89 %1009.1 hPa16.1 kmEast (90°)27.8 km/h0 mmMostly Cloudy
7:17 AM26 °C23 °C83 %1009.5 hPa16.1 kmEast (90°)31.5 km/hMostly Cloudy
7:19 AM26 °C23 °C83 %1009.5 hPa16.1 kmEast (90°)27.8 km/hMostly Cloudy
7:26 AM26 °C23 °C83 %1009.5 hPa16.1 kmEast (90°)27.8 km/hMostly Cloudy
7:37 AM26 °C24 °C89 %1009.8 hPa16.1 kmEast (90°)25.9 km/hMostly Cloudy
7:39 AM26 °C24 °C89 %1009.8 hPa16.1 kmEast (90°)25.9 km/hRainLight Rain
7:40 AM26 °C24 °C89 %1009.8 hPa16.1 kmEast (90°)29.6 km/hRainLight Rain
7:47 AM26 °C23 °C83 %1009.8 hPa16.1 kmEast (90°)27.8 km/hRainLight Rain
7:50 AM26 °C23 °C83 %1009.8 hPa16.1 kmEast (100°)29.6 km/hScattered Clouds
7:55 AM26 °C23.3 °C85 %1009.8 hPa16.1 kmEast (90°)27.8 km/h0 mmScattered Clouds
8:02 AM26 °C24 °C89 %1009.8 hPa16.1 kmEast (90°)25.9 km/hMostly Cloudy
8:07 AM26 °C24 °C89 %1009.8 hPa16.1 kmEast (90°)22.2 km/hScattered Clouds
8:09 AM26 °C24 °C89 %1009.8 hPa16.1 kmEast (80°)24.1 km/hMostly Cloudy
8:17 AM26 °C24 °C89 %1010.2 hPa16.1 kmEast (90°)24.1 km/hMostly Cloudy
8:18 AM26 °C24 °C89 %1010.2 hPa16.1 kmEast (90°)24.1 km/hMostly Cloudy
8:19 AM26 °C24 °C89 %1010.2 hPa16.1 kmEast (90°)24.1 km/hMostly Cloudy
8:21 AM26 °C24 °C89 %1010.2 hPa16.1 kmEast (90°)25.9 km/hMostly Cloudy
8:24 AM26 °C24 °C89 %1010.2 hPa16.1 kmEast (90°)24.1 km/hMostly Cloudy
8:39 AM26 °C24 °C89 %1010.2 hPa16.1 kmEast (90°)25.9 km/hMostly Cloudy
8:41 AM26 °C24 °C89 %1010.5 hPa16.1 kmEast (90°)24.1 km/hScattered Clouds
8:48 AM26 °C24 °C89 %1010.5 hPa16.1 kmEast (100°)24.1 km/hMostly Cloudy
8:55 AM26.2 °C23.5 °C85 %1010.5 hPa16.1 kmEast (90°)25.9 km/hMostly Cloudy
8:56 AM26 °C24 °C89 %1010.5 hPa16.1 kmEast (90°)25.9 km/hMostly Cloudy
9:05 AM26 °C24 °C89 %1010.5 hPa16.1 kmEast (90°)22.2 km/hMostly Cloudy
9:07 AM26 °C24 °C89 %1010.5 hPa16.1 kmEast (100°)20.4 km/h35.2 km/hMostly Cloudy
9:08 AM26 °C24 °C89 %1010.5 hPa16.1 kmEast (100°)20.4 km/h35.2 km/hMostly Cloudy
9:43 AM27 °C24 °C84 %1010.8 hPa16.1 kmEast (90°)27.8 km/hMostly Cloudy
9:44 AM27 °C24 °C84 %1010.5 hPa16.1 kmEast (100°)27.8 km/hMostly Cloudy
9:45 AM27 °C24 °C84 %1010.8 hPa16.1 kmEast (100°)24.1 km/hMostly Cloudy
9:46 AM27 °C24 °C84 %1010.8 hPa16.1 kmEast (100°)24.1 km/hMostly Cloudy
9:55 AM27 °C23.8 °C83 %1010.8 hPa16.1 kmEast (90°)25.9 km/hMostly Cloudy
9:59 AM27 °C24 °C84 %1010.8 hPa16.1 kmEast (100°)22.2 km/hMostly Cloudy
10:04 AM27 °C24 °C84 %1010.8 hPa16.1 kmEast (90°)25.9 km/hMostly Cloudy
10:06 AM27 °C24 °C84 %1010.8 hPa16.1 kmEast (90°)27.8 km/hMostly Cloudy
10:55 AM27 °C23.6 °C82 %1010.8 hPa16.1 kmEast (90°)25.9 km/hMostly Cloudy
10:56 AM27 °C24 °C84 %1010.8 hPa16.1 kmEast (90°)27.8 km/hMostly Cloudy
10:57 AM27 °C24 °C84 %1010.8 hPa16.1 kmEast (80°)25.9 km/hMostly Cloudy
11:03 AM27 °C24 °C84 %1010.8 hPa16.1 kmEast (100°)24.1 km/h37 km/hMostly Cloudy
11:10 AM27 °C24 °C84 %1010.5 hPa16.1 kmEast (80°)31.5 km/h38.9 km/hMostly Cloudy
11:55 AM28.6 °C24.1 °C76 %1010.2 hPa16.1 kmEast (90°)24.1 km/hMostly Cloudy
12:03 PM29 °C24 °C74 %1010.2 hPa16.1 kmEast (90°)27.8 km/hScattered Clouds
12:07 PM28 °C24 °C79 %1010.2 hPa16.1 kmEast (90°)27.8 km/hMostly Cloudy
12:22 PM29 °C23 °C70 %1009.8 hPa16.1 kmEast (100°)22.2 km/hScattered Clouds
12:28 PM29 °C24 °C74 %1009.8 hPa16.1 kmEast (100°)24.1 km/hMostly Cloudy
12:33 PM29 °C24 °C74 %1009.8 hPa16.1 kmEast (90°)24.1 km/hScattered Clouds
12:34 PM29 °C24 °C74 %1009.8 hPa16.1 kmEast (100°)24.1 km/hMostly Cloudy
12:39 PM29 °C24 °C74 %1009.5 hPa16.1 kmEast (100°)20.4 km/hScattered Clouds
12:48 PM28 °C24 °C79 %1009.5 hPa16.1 kmEast (80°)22.2 km/hMostly Cloudy
12:50 PM28 °C24 °C79 %1009.5 hPa16.1 kmEast (80°)29.6 km/hRainLight Rain
12:55 PM27.6 °C24.7 °C84 %1009.5 hPa16.1 kmEast (80°)20.4 km/h35.2 km/h0 mmRainLight Rain
12:57 PM28 °C25 °C84 %1009.5 hPa16.1 kmEast (90°)20.4 km/h35.2 km/hRainLight Rain
12:59 PM28 °C25 °C84 %1009.5 hPa16.1 kmEast (90°)22.2 km/hScattered Clouds
1:03 PM28 °C24 °C79 %1009.5 hPa14.5 kmEast (90°)27.8 km/hLight Drizzle
1:10 PM27 °C24 °C84 %1009.5 hPa9.7 kmEast (90°)20.4 km/hRainLight Rain
1:20 PM27 °C24 °C84 %1009.5 hPa16.1 kmEast (90°)25.9 km/hMostly Cloudy
1:25 PM27 °C24 °C84 %1009.5 hPa16.1 kmEast (80°)25.9 km/hMostly Cloudy
1:26 PM27 °C24 °C84 %1009.5 hPa16.1 kmEast (90°)25.9 km/hMostly Cloudy
1:39 PM28 °C24 °C79 %1009.1 hPa16.1 kmEast (80°)25.9 km/hMostly Cloudy
1:51 PM28 °C24 °C79 %1009.1 hPa16.1 kmEast (80°)27.8 km/hMostly Cloudy
1:52 PM28 °C24 °C79 %1009.1 hPa16.1 kmEast (90°)29.6 km/hMostly Cloudy
1:55 PM28.4 °C24 °C77 %1009.1 hPa16.1 kmEast (90°)25.9 km/h0 mmMostly Cloudy
2:10 PM29 °C24 °C74 %1009.1 hPa16.1 kmEast (80°)27.8 km/hMostly Cloudy
2:14 PM29 °C24 °C74 %1008.8 hPa16.1 kmEast (90°)24.1 km/hMostly Cloudy
2:24 PM29 °C24 °C74 %1008.5 hPa16.1 kmEast (90°)25.9 km/hScattered Clouds
2:27 PM29 °C24 °C74 %1008.5 hPa16.1 kmEast (90°)25.9 km/hMostly Cloudy
2:41 PM29 °C24 °C74 %1008.5 hPa16.1 kmEast (90°)25.9 km/h31.5 km/hScattered Clouds
2:55 PM28.7 °C24.2 °C76 %1008.5 hPa16.1 kmEast (100°)22.2 km/hScattered Clouds
3:55 PM27.9 °C23.8 °C78 %1008.1 hPa16.1 kmEast (90°)29.6 km/hScattered Clouds
4:55 PM27.8 °C24 °C80 %1008.5 hPa16.1 kmEast (80°)27.8 km/hScattered Clouds
5:11 PM27 °C24 °C84 %1008.5 hPa16.1 kmEast (90°)31.5 km/h37 km/hMostly Cloudy
5:18 PM27 °C24 °C84 %1008.5 hPa16.1 kmEast (90°)27.8 km/h37 km/hScattered Clouds
5:55 PM26.5 °C23.5 °C83 %1008.8 hPa16.1 kmEast (80°)27.8 km/h37 km/hPartly Cloudy
6:11 PM26 °C24 °C89 %1009.1 hPa16.1 kmEast (80°)24.1 km/hMostly Cloudy
6:17 PM26 °C24 °C89 %1009.1 hPa16.1 kmEast (90°)27.8 km/hScattered Clouds
6:55 PM25.9 °C23.7 °C88 %1009.1 hPa16.1 kmEast (90°)24.1 km/hPartly Cloudy
7:23 PM26 °C24 °C89 %1009.5 hPa16.1 kmEast (90°)27.8 km/hMostly Cloudy
7:38 PM26 °C24 °C89 %1009.5 hPa16.1 kmEast (90°)29.6 km/hScattered Clouds
7:55 PM25.9 °C23.5 °C87 %1009.8 hPa16.1 kmEast (90°)22.2 km/hScattered Clouds
8:16 PM26 °C23 °C83 %1010.2 hPa16.1 kmEast (90°)27.8 km/hMostly Cloudy
8:18 PM26 °C23 °C83 %1010.2 hPa16.1 kmEast (100°)27.8 km/hScattered Clouds
8:20 PM26 °C23 °C83 %1010.2 hPa16.1 kmEast (90°)27.8 km/hMostly Cloudy
8:26 PM26 °C24 °C89 %1010.2 hPa16.1 kmEast (90°)25.9 km/hScattered Clouds
8:33 PM26 °C24 °C89 %1010.2 hPa16.1 kmEast (100°)24.1 km/hMostly Cloudy
8:35 PM26 °C24 °C89 %1010.5 hPa16.1 kmEast (90°)27.8 km/hMostly Cloudy
8:40 PM26 °C24 °C89 %1010.5 hPa16.1 kmEast (100°)25.9 km/hMostly Cloudy
8:44 PM26 °C24 °C89 %1010.5 hPa16.1 kmEast (100°)27.8 km/hScattered Clouds
8:54 PM26 °C24 °C89 %1010.5 hPa16.1 kmEast (90°)24.1 km/hMostly Cloudy
8:55 PM25.8 °C23.7 °C88 %1010.5 hPa16.1 kmEast (100°)24.1 km/hMostly Cloudy
8:57 PM26 °C24 °C89 %1010.5 hPa16.1 kmEast (90°)20.4 km/hMostly Cloudy
9:14 PM26 °C24 °C89 %1010.8 hPa16.1 kmEast (90°)24.1 km/hMostly Cloudy
9:20 PM26 °C24 °C89 %1011.2 hPa16.1 kmEast (90°)24.1 km/hScattered Clouds
9:23 PM26 °C24 °C89 %1011.2 hPa16.1 kmEast (90°)25.9 km/hMostly Cloudy
9:39 PM26 °C24 °C89 %1011.2 hPa16.1 kmEast (90°)20.4 km/h35.2 km/hScattered Clouds
9:42 PM26 °C24 °C89 %1011.2 hPa16.1 kmEast (90°)25.9 km/hMostly Cloudy
9:55 PM25.9 °C23.8 °C88 %1011.2 hPa16.1 kmEast (80°)22.2 km/hMostly Cloudy
10:10 PM26 °C24 °C89 %1011.2 hPa16.1 kmEast (80°)25.9 km/hScattered Clouds
10:25 PM26 °C24 °C89 %1011.2 hPa16.1 kmENE (70°)24.1 km/hMostly Cloudy
10:28 PM26 °C24 °C89 %1011.2 hPa16.1 kmENE (70°)27.8 km/hMostly Cloudy
10:32 PM26 °C24 °C89 %1011.2 hPa16.1 kmEast (90°)24.1 km/hScattered Clouds
10:40 PM26 °C24 °C89 %1011.2 hPa16.1 kmEast (80°)27.8 km/hMostly Cloudy
10:53 PM26 °C23 °C83 %1011.2 hPa16.1 kmEast (80°)24.1 km/hScattered Clouds
10:55 PM25.6 °C23.4 °C88 %1011.2 hPa16.1 kmEast (80°)20.4 km/hScattered Clouds
11:02 PM26 °C23 °C83 %1011.2 hPa16.1 kmEast (80°)20.4 km/hMostly Cloudy
11:04 PM26 °C23 °C83 %1011.2 hPa16.1 kmEast (80°)22.2 km/hMostly Cloudy
11:07 PM26 °C23 °C83 %1011.2 hPa16.1 kmEast (80°)20.4 km/hMostly Cloudy
11:09 PM26 °C23 °C83 %1011.2 hPa16.1 kmEast (80°)18.5 km/hScattered Clouds
11:10 PM26 °C23 °C83 %1011.2 hPa16.1 kmEast (80°)18.5 km/hMostly Cloudy
11:13 PM26 °C23 °C83 %1011.2 hPa16.1 kmEast (90°)20.4 km/hScattered Clouds
11:16 PM26 °C23 °C83 %1011.2 hPa16.1 kmEast (80°)22.2 km/hMostly Cloudy
11:26 PM26 °C23 °C83 %1011.2 hPa16.1 kmEast (80°)20.4 km/hScattered Clouds
11:38 PM26 °C23 °C83 %1011.2 hPa16.1 kmEast (80°)24.1 km/hMostly Cloudy
11:55 PM25.7 °C23.5 °C88 %1011.2 hPa16.1 kmENE (70°)25.9 km/hMostly Cloudy
Hourly data recorded from PGUA, located 0 kilometers away from Merizo, Guam







STORIES FROM OUR PARTNERS